Weather History for Aurora, OR

Change the Weather History Date:

Wednesday, May 14, 2014

  Actual Average Record
Temperature  
Mean Temperature 74 °F -  
Max Temperature 90 °F - 90 °F (2014)
Min Temperature 59 °F - 39 °F (2007)
Degree Days  
Heating Degree Days 0    
Month to date heating degree days 105  
Since 1 July heating degree days 4432  
Cooling Degree Days 10    
Month to date cooling degree days 17  
Year to date cooling degree days 22  
Growing Degree Days 24 (Base 50)    
Moisture  
Dew Point 49 °F    
Average Humidity 42    
Maximum Humidity 57    
Minimum Humidity 26    
Precipitation  
Precipitation 0.00 in - 0.74 in (2001)
Month to date precipitation 1.46  
Year to date precipitation 20.34  
Sea Level Pressure  
Sea Level Pressure 30.14 in    
Wind  
Wind Speed 8 mph (NNE)    
Max Wind Speed 15 mph    
Max Gust Speed 18 mph    
Visibility 10 miles    
Events      
T = Trace of Precipitation, MM = Missing Value Source: NWS Daily Summary

Daily Weather History Graph

Daily Weather History Graph

Search for Another Location

Airport:

Trip Planner

Search our weather history database for the weather conditions in past years. The results will help you decide how hot, cold, wet, or windy it might be!

Date:

Astronomy

May. 14, 2014 Rise Set
Actual Time 5:42 AM PDT 8:33 PM PDT
Civil Twilight 5:08 AM PDT 9:07 PM PDT
Nautical Twilight 4:24 AM PDT 9:51 PM PDT
Astronomical Twilight 3:33 AM PDT 10:43 PM PDT
Moon 8:43 PM PDT (5/14) 5:47 AM PDT (5/14)
Length of Visible Light 15h 59m
Length of Day
14h 50m
Full, 100% of the Moon is Illuminated
May 14
Full
May 14
Full
May 21
Last Quarter
May 28
New
Jun 5
First Quarter

Hourly Weather History & Observations

Time (PDT) Temp. Heat Index Dew Point Humidity Pressure Visibility Wind Dir Wind Speed Gust Speed Precip Events Conditions
12:53 AM 64.0 °F - 45.0 °F 50% 30.24 in 10.0 mi NNE 9.2 mph - N/A   Clear
1:53 AM 64.0 °F - 44.1 °F 48% 30.24 in 10.0 mi NNE 10.4 mph - N/A   Clear
2:53 AM 63.0 °F - 43.0 °F 48% 30.23 in 10.0 mi NNE 10.4 mph - N/A   Clear
3:53 AM 60.1 °F - 43.0 °F 53% 30.23 in 10.0 mi North 9.2 mph - N/A   Clear
5:53 AM 59.0 °F - 43.0 °F 55% 30.22 in 10.0 mi NNE 3.5 mph - N/A   Clear
6:53 AM 60.1 °F - 44.1 °F 55% 30.23 in 10.0 mi North 9.2 mph - N/A   Clear
8:53 AM 69.1 °F - 46.0 °F 44% 30.22 in 10.0 mi North 13.8 mph - N/A   Clear
9:53 AM 72.0 °F - 46.9 °F 41% 30.21 in 10.0 mi North 10.4 mph - N/A   Clear
10:53 AM 75.0 °F - 48.9 °F 40% 30.20 in 10.0 mi North 10.4 mph - N/A   Clear
11:53 AM 79.0 °F - 51.1 °F 38% 30.19 in 10.0 mi North 12.7 mph - N/A   Clear
12:53 PM 82.0 °F - 52.0 °F 35% 30.17 in 10.0 mi North 10.4 mph - N/A   Clear
2:53 PM 88.0 °F - 51.1 °F 28% 30.11 in 10.0 mi NNE 10.4 mph - N/A   Clear
3:53 PM 89.1 °F - 50.0 °F 26% 30.09 in 10.0 mi NNE 9.2 mph - N/A   Clear
4:53 PM 89.1 °F 86.7 °F 53.1 °F 29% 30.07 in 10.0 mi North 9.2 mph - N/A   Clear
5:53 PM 88.0 °F 85.7 °F 53.1 °F 30% 30.05 in 10.0 mi North 8.1 mph - N/A   Clear
6:53 PM 84.0 °F 82.9 °F 55.0 °F 37% 30.04 in 10.0 mi North 6.9 mph - N/A   Clear
7:53 PM 79.0 °F - 55.0 °F 44% 30.04 in 10.0 mi North 5.8 mph - N/A   Clear
8:53 PM 75.9 °F - 54.0 °F 46% 30.04 in 10.0 mi North 4.6 mph - N/A   Clear
9:53 PM 73.0 °F - 54.0 °F 51% 30.05 in 10.0 mi NNE 4.6 mph - N/A   Clear
10:53 PM 69.1 °F - 53.1 °F 57% 30.05 in 10.0 mi North 5.8 mph - N/A   Clear
11:53 PM 71.1 °F - 52.0 °F 51% 30.04 in 10.0 mi NE 4.6 mph - N/A   Clear